Location: Newark
(49.1000°N, 0.4667°W)
Time: 09:56:35
(UTC+00:00)

BEESAT 3 - Pass Details

Date: 09 July 2020
Orbit: 482 x 522 km, 64.9° (Epoch: 10 August)

Event Time Altitude Azimuth Distance (km) Brightness Sun altitude
Rises 20:50:24 0° 226° (SW) 2,634 ? -6.3°
Reaches altitude 10° 20:52:35 10° 229° (SW) 1,753 ? -6.6°
Maximum altitude 20:56:29 65° 311° (NW) 581 ? -7.0°
Drops below altitude 10° 21:00:26 10° 35° (NE) 1,769 ? -7.5°
Sets 21:02:38 0° 38° (NE) 2,660 ? -7.7°
